Regional Weather Roundup
Issued by NWS

Home | Current Version | Previous Version | Graphics & Text | Print | Product List | Glossary On
Versions: 1 2 3 4 5 6 7 8 9 10 11 12 13 14 15 16 17 18 19 20 21 22 23 24 25 26 27 28 29 30 31 32 33 34 35 36 37 38 39 40 41 42 43 44 45 46 47 48 49 50
000
ASUS43 KBIS 161402
RWRND

NORTH DAKOTA REGIONAL WEATHER ROUNDUP
NATIONAL WEATHER SERVICE BISMARCK ND
800 AM CST SAT DEC 16 2017

NOTE: "FAIR" INDICATES FEW OR NO CLOUDS BELOW 12,000 FEET WITH NO
SIGNIFICANT WEATHER AND/OR OBSTRUCTIONS TO VISIBILITY.


NDZ001>003-009>011-017-161500-
NORTHWEST NORTH DAKOTA

CITY           SKY/WX    TMP DP  RH WIND       PRES   REMARKS
WILLISTON        N/A    N/A N/A N/A MISG      29.87R
MINOT          CLOUDY    37  31  78 W13       29.79R
MINOT AFB      CLOUDY    35  30  83 NW15      29.77R
$$

NDZ018>021-031>035-040>046-161500-
SOUTHWEST NORTH DAKOTA

CITY           SKY/WX    TMP DP  RH WIND       PRES   REMARKS
BISMARCK       CLOUDY    35  32  88 NW9       29.83R
DICKINSON      CLOUDY    28  25  88 W9        29.83R WCI  19
GARRISON         N/A     33  30  88 W10       29.81R
HETTINGER ARPT CLOUDY    30  27  88 NW10      29.88R
$$

NDZ004>008-012>016-024-026-027-054-161500-
NORTHEAST NORTH DAKOTA

CITY           SKY/WX    TMP DP  RH WIND       PRES   REMARKS
GRAND FORKS    CLOUDY    21  18  88 E3        29.79R
GRND FRKS AFB  CLOUDY    21  18  88 CALM      29.79R
DEVILS LAKE    CLOUDY    25  24  96 CALM      29.76R
$$

NDZ022-023-025-028>030-036>039-047>053-161500-
SOUTHEAST NORTH DAKOTA

CITY           SKY/WX    TMP DP  RH WIND       PRES   REMARKS
FARGO          CLOUDY    27  24  89 S3        29.79R
JAMESTOWN      CLOUDY    34  32  92 NW7       29.75R
$$





USA.gov is the U.S. government's official web portal to all federal, state and local government web resources and services.